Regional Weather Roundup
Issued by NWS

Home | Current Version | Previous Version | Graphics & Text | Print | Product List | Glossary On
Versions: 1 2 3 4 5 6 7 8 9 10 11 12 13 14 15 16 17 18 19 20 21 22 23 24 25 26 27 28 29 30 31 32 33 34 35 36 37 38 39 40 41 42 43 44 45 46 47 48 49 50
000
ASUS43 KFSD 261010
RWRSD

WEATHER ROUNDUP FOR SOUTH DAKOTA
NATIONAL WEATHER SERVICE SIOUX FALLS SD
500 AM CDT MON SEP 26 2016

NOTE: "FAIR" INDICATES FEW OR NO CLOUDS BELOW 12,000 FEET WITH NO
SIGNIFICANT WEATHER AND/OR OBSTRUCTIONS TO VISIBILITY.


SDZ001>005-009-010-012>017-261100-
NORTHWEST AND NORTH CENTRAL SOUTH DAKOTA

CITY           SKY/WX    TMP DP  RH WIND       PRES   REMARKS
BUFFALO          N/A     43  37  79 W10       30.18F
FAITH            N/A     47  38  71 W9        30.23F
MOBRIDGE       CLEAR     43  36  76 N6        30.17S
$$

SDZ012>016-024>037-041>051-057-063-072>074-261100-
SOUTHWEST AND SOUTH CENTRAL SOUTH DAKOTA

CITY           SKY/WX    TMP DP  RH WIND       PRES   REMARKS
RAPID CTY ARPT CLEAR     45  34  65 W5        30.28S
PIERRE         CLEAR     44  35  70 W12       30.20S
CUSTER         CLEAR     41  30  65 W7        30.35F
ELLSWORTH AFB  CLEAR     42  34  72 W2        30.27S
PHILIP         CLEAR     42  35  76 W8        30.26S
PINE RIDGE     CLEAR     31  27  85 CALM      30.31F
WINNER         FAIR      48  35  60 W8        30.24F
$$

SDZ004>011-016>023-039-040-261100-
NORTHEAST SOUTH DAKOTA

CITY           SKY/WX    TMP DP  RH WIND       PRES   REMARKS
ABERDEEN       PTCLDY    41  34  76 W9        30.14R
WATERTOWN      CLEAR     48  35  60 W15       30.10R
BROOKINGS      CLEAR     45  36  70 W9        30.12R
SISSETON         N/A     50  35  56 NW16G22   30.04R
$$

SDZ017-020-022-023-036>040-048>070-261100-
SOUTHEAST SOUTH DAKOTA

CITY           SKY/WX    TMP DP  RH WIND       PRES   REMARKS
SIOUX FALLS    PTCLDY    45  36  70 W8        30.15S
HURON          PTCLDY    42  35  76 W9        30.16S
CHAMBERLAIN    CLEAR     48  38  66 W12       30.22S
MITCHELL       CLEAR     46  36  68 W10       30.19R
YANKTON        CLEAR     52  34  50 W12       30.18S
$$

ABBREVIATIONS USED IN REMARKS
   TC - TEMPERATURE IN CELSIUS
  WCI - WIND CHILL INDEX
   HX - HEAT INDEX
  VSB - VISIBILITY





USA.gov is the U.S. government's official web portal to all federal, state and local government web resources and services.